| time (UTC) | temp F | wind direction | speed MPH | gust MPH | rain 1hr in | rain 24hr in | rain mn in | humidity % | barometer mb |
| 20260905161319 | 71 | 27 | 3.0 | 7.0 | 0.01 | 0.08 | 0.04 | 68 | 1015.2 |
| 20260905161040 | 71 | 59 | 3.0 | 9.0 | 0.01 | 0.08 | 0.04 | 67 | 1015.1 |
| 20260905160739 | 70 | 324 | 2.0 | 9.0 | 0.01 | 0.09 | 0.04 | 72 | 1015.0 |
| 20260905155536 | 70 | 159 | 0.0 | 9.0 | 0.01 | 0.08 | 0.04 | 73 | 1015.1 |
| 20260905154542 | 70 | 295 | 2.0 | 9.0 | 0.01 | 0.08 | 0.04 | 70 | 1015.1 |
| 20260905154041 | 71 | 305 | 2.0 | 6.0 | 0.01 | 0.08 | 0.04 | 69 | 1015.0 |
| 20260905153542 | 71 | 290 | 2.0 | 6.0 | 0.01 | 0.08 | 0.04 | 68 | 1015.1 |
| 20260905153042 | 71 | 204 | 2.0 | 7.0 | 0.01 | 0.08 | 0.04 | 68 | 1015.2 |
| 20260905152542 | 71 | 16 | 2.0 | 7.0 | 0.00 | 0.08 | 0.03 | 72 | 1015.1 |
| 20260905152306 | 70 | 338 | 1.0 | 6.0 | 0.00 | 0.08 | 0.03 | 76 | 1015.1 |
| 20260905151543 | 70 | 353 | 2.0 | 9.0 | 0.00 | 0.08 | 0.03 | 76 | 1015.1 |
| 20260905151042 | 70 | 310 | 3.0 | 11.0 | 0.00 | 0.08 | 0.03 | 76 | 1015.2 |
| 20260905150542 | 70 | 274 | 6.0 | 11.0 | 0.00 | 0.08 | 0.03 | 74 | 1015.3 |
| 20260905150042 | 70 | 336 | 3.0 | 10.0 | 0.00 | 0.08 | 0.03 | 74 | 1015.3 |
| 20260905145542 | 69 | 217 | 4.0 | 10.0 | 0.00 | 0.08 | 0.03 | 75 | 1015.3 |
| 20260905145530 | 68 | 305 | 2.0 | 6.0 | 0.00 | 0.08 | 0.03 | 78 | 1015.4 |
| 20260905144542 | 68 | 348 | 2.0 | 13.0 | 0.00 | 0.08 | 0.03 | 78 | 1015.4 |
| 20260905144044 | 68 | 63 | 6.0 | 13.0 | 0.00 | 0.08 | 0.03 | 76 | 1015.4 |
| 20260905143542 | 67 | 353 | 3.0 | 9.0 | 0.00 | 0.08 | 0.03 | 81 | 1015.3 |
| 20260905143042 | 67 | 255 | 2.0 | 9.0 | 0.00 | 0.08 | 0.03 | 81 | 1015.2 |
| 20260905142541 | 66 | 303 | 3.0 | 9.0 | 0.00 | 0.08 | 0.03 | 84 | 1015.2 |
| 20260905142042 | 66 | 343 | 3.0 | 7.0 | 0.00 | 0.08 | 0.03 | 85 | 1015.3 |
| 20260905141542 | 65 | 296 | 2.0 | 9.0 | 0.00 | 0.08 | 0.03 | 85 | 1015.4 |
| 20260905141042 | 65 | 1 | 1.0 | 9.0 | 0.00 | 0.08 | 0.03 | 87 | 1015.3 |
| 20260905140542 | 65 | 353 | 2.0 | 5.0 | 0.00 | 0.08 | 0.03 | 92 | 1015.3 |
| 20260905140042 | 64 | 276 | 2.0 | 4.0 | 0.00 | 0.08 | 0.03 | 93 | 1015.2 |
| 20260905135541 | 64 | 341 | 0.0 | 4.0 | 0.00 | 0.08 | 0.03 | 93 | 1015.2 |
| 20260905135043 | 63 | 230 | 1.0 | 3.0 | 0.00 | 0.08 | 0.03 | 92 | 1015.2 |
| 20260905134542 | 63 | 358 | 1.0 | 6.0 | 0.00 | 0.08 | 0.03 | 93 | 1015.2 |
| 20260905134042 | 62 | 234 | 2.0 | 7.0 | 0.00 | 0.08 | 0.03 | 93 | 1015.1 |
| 20260905133541 | 62 | 16 | 2.0 | 7.0 | 0.00 | 0.08 | 0.03 | 94 | 1015.2 |
| 20260905133042 | 62 | 333 | 0.0 | 7.0 | 0.00 | 0.08 | 0.03 | 95 | 1015.2 |
| 20260905132542 | 62 | 307 | 3.0 | 7.0 | 0.00 | 0.08 | 0.03 | 95 | 1015.3 |
| 20260905132041 | 62 | 320 | 1.0 | 4.0 | 0.00 | 0.08 | 0.03 | 96 | 1015.2 |
| 20260905131542 | 62 | 271 | 0.0 | 4.0 | 0.00 | 0.08 | 0.03 | 96 | 1015.0 |
| 20260905131042 | 62 | 307 | 1.0 | 5.0 | 0.00 | 0.08 | 0.03 | 96 | 1015.1 |
| 20260905130808 | 62 | 300 | 2.0 | 5.0 | 0.00 | 0.08 | 0.03 | 96 | 1015.1 |
| 20260905130041 | 61 | 320 | 0.0 | 5.0 | 0.00 | 0.09 | 0.03 | 97 | 1015.2 |
| 20260905125541 | 61 | 289 | 2.0 | 5.0 | 0.00 | 0.09 | 0.03 | 97 | 1015.2 |
| 20260905125042 | 61 | 348 | 0.0 | 3.0 | 0.00 | 0.09 | 0.03 | 97 | 1015.1 |
| 20260905124816 | 61 | 289 | 0.0 | 5.0 | 0.00 | 0.09 | 0.03 | 97 | 1015.1 |
| 20260905124041 | 60 | 289 | 2.0 | 5.0 | 0.00 | 0.09 | 0.03 | 96 | 1015.2 |
| 20260905123542 | 60 | 275 | 2.0 | 7.0 | 0.00 | 0.09 | 0.03 | 96 | 1015.2 |
| 20260905123043 | 60 | 336 | 2.0 | 7.0 | 0.00 | 0.09 | 0.03 | 97 | 1015.0 |
| 20260905122543 | 60 | 10 | 2.0 | 5.0 | 0.00 | 0.09 | 0.03 | 97 | 1015.1 |
| 20260905122041 | 60 | 306 | 2.0 | 5.0 | 0.00 | 0.09 | 0.03 | 96 | 1015.2 |
| 20260905121542 | 60 | 282 | 3.0 | 5.0 | 0.00 | 0.09 | 0.03 | 96 | 1015.1 |
| 20260905121042 | 60 | 345 | 2.0 | 5.0 | 0.00 | 0.09 | 0.03 | 96 | 1015.2 |
| 20260905120541 | 60 | 255 | 2.0 | 9.0 | 0.01 | 0.09 | 0.03 | 96 | 1015.2 |
| 20260905120043 | 60 | 288 | 4.0 | 9.0 | 0.01 | 0.09 | 0.03 | 96 | 1015.3 |
| 20260905115542 | 59 | 306 | 2.0 | 6.0 | 0.01 | 0.08 | 0.03 | 96 | 1015.2 |
| 20260905115318 | 59 | 261 | 2.0 | 6.0 | 0.01 | 0.08 | 0.03 | 96 | 1015.2 |
| 20260905114814 | 59 | 310 | 3.0 | 5.0 | 0.01 | 0.08 | 0.03 | 96 | 1015.3 |
| 20260905114041 | 59 | 340 | 2.0 | 5.0 | 0.01 | 0.08 | 0.03 | 96 | 1015.3 |
| 20260905113541 | 59 | 296 | 1.0 | 4.0 | 0.01 | 0.08 | 0.03 | 96 | 1015.2 |
| 20260905113041 | 59 | 313 | 3.0 | 4.0 | 0.01 | 0.09 | 0.03 | 96 | 1015.0 |
| 20260905112541 | 58 | 300 | 1.0 | 5.0 | 0.01 | 0.09 | 0.03 | 96 | 1015.0 |
| 20260905112042 | 58 | 295 | 1.0 | 5.0 | 0.01 | 0.09 | 0.03 | 96 | 1014.9 |
| 20260905111541 | 58 | 272 | 2.0 | 4.0 | 0.01 | 0.09 | 0.03 | 96 | 1014.6 |
| 20260905111042 | 58 | 324 | 1.0 | 4.0 | 0.01 | 0.09 | 0.03 | 96 | 1014.7 |
| 20260905110541 | 58 | 336 | 1.0 | 3.0 | 0.00 | 0.09 | 0.02 | 95 | 1014.5 |
| 20260905110042 | 58 | 295 | 1.0 | 3.0 | 0.00 | 0.09 | 0.02 | 95 | 1014.4 |
| 20260905105542 | 58 | 295 | 1.0 | 3.0 | 0.00 | 0.09 | 0.02 | 95 | 1014.4 |
| 20260905105318 | 58 | 295 | 2.0 | 3.0 | 0.00 | 0.09 | 0.02 | 95 | 1014.2 |
| 20260905104541 | 58 | 312 | 2.0 | 4.0 | 0.00 | 0.09 | 0.02 | 95 | 1014.1 |
| 20260905104103 | 58 | 296 | 2.0 | 4.0 | 0.00 | 0.09 | 0.02 | 95 | 1014.1 |
| 20260905104055 | 58 | 312 | 2.0 | 4.0 | 0.00 | 0.09 | 0.02 | 95 | 1014.1 |
| 20260905103041 | 58 | 296 | 2.0 | 4.0 | 0.00 | 0.09 | 0.02 | 95 | 1014.2 |
| 20260905102543 | 58 | 296 | 3.0 | 3.0 | 0.00 | 0.09 | 0.02 | 95 | 1014.4 |
| 20260905102316 | 58 | 296 | 2.0 | 3.0 | 0.00 | 0.09 | 0.02 | 95 | 1014.2 |
| 20260905101541 | 58 | 296 | 2.0 | 3.0 | 0.00 | 0.09 | 0.02 | 95 | 1013.9 |
| 20260905101042 | 58 | 296 | 1.0 | 2.0 | 0.00 | 0.10 | 0.02 | 95 | 1014.0 |
| 20260905100541 | 58 | 296 | 2.0 | 3.0 | 0.00 | 0.10 | 0.02 | 95 | 1014.0 |
| 20260905100041 | 58 | 296 | 2.0 | 3.0 | 0.00 | 0.10 | 0.02 | 95 | 1013.9 |
| 20260905095542 | 58 | 296 | 2.0 | 3.0 | 0.00 | 0.10 | 0.02 | 94 | 1013.9 |
| 20260905095042 | 58 | 296 | 2.0 | 3.0 | 0.00 | 0.10 | 0.02 | 94 | 1013.9 |
| 20260905094542 | 58 | 296 | 1.0 | 3.0 | 0.00 | 0.10 | 0.02 | 94 | 1013.9 |
| 20260905094319 | 58 | 296 | 2.0 | 4.0 | 0.00 | 0.10 | 0.02 | 94 | 1014.0 |
| 20260905093542 | 59 | 296 | 2.0 | 4.0 | 0.00 | 0.10 | 0.02 | 94 | 1013.9 |
| 20260905093040 | 59 | 296 | 3.0 | 4.0 | 0.00 | 0.10 | 0.02 | 94 | 1013.9 |
| 20260905092541 | 59 | 296 | 2.0 | 3.0 | 0.00 | 0.10 | 0.02 | 94 | 1013.8 |
| 20260905092041 | 59 | 296 | 2.0 | 3.0 | 0.00 | 0.10 | 0.02 | 94 | 1013.9 |
| 20260905091542 | 59 | 296 | 2.0 | 3.0 | 0.00 | 0.10 | 0.02 | 94 | 1013.8 |
| 20260905091042 | 59 | 285 | 2.0 | 4.0 | 0.00 | 0.11 | 0.02 | 94 | 1013.7 |
| 20260905090542 | 59 | 285 | 2.0 | 4.0 | 0.01 | 0.11 | 0.02 | 94 | 1013.6 |
| 20260905090041 | 59 | 299 | 2.0 | 4.0 | 0.01 | 0.11 | 0.02 | 94 | 1013.6 |
| 20260905085814 | 59 | 316 | 2.0 | 3.0 | 0.01 | 0.10 | 0.02 | 94 | 1013.6 |
| 20260905085042 | 60 | 316 | 2.0 | 3.0 | 0.01 | 0.10 | 0.02 | 94 | 1013.6 |
| 20260905084542 | 60 | 316 | 1.0 | 3.0 | 0.01 | 0.10 | 0.02 | 94 | 1013.6 |
| 20260905084316 | 60 | 300 | 1.0 | 3.0 | 0.01 | 0.10 | 0.02 | 93 | 1013.6 |
| 20260905083541 | 60 | 300 | 1.0 | 4.0 | 0.01 | 0.10 | 0.02 | 93 | 1013.6 |
| 20260905083042 | 60 | 281 | 2.0 | 4.0 | 0.01 | 0.10 | 0.02 | 93 | 1013.7 |
| 20260905082542 | 60 | 295 | 0.0 | 4.0 | 0.01 | 0.10 | 0.02 | 93 | 1013.6 |
| 20260905082316 | 60 | 290 | 1.0 | 4.0 | 0.01 | 0.10 | 0.02 | 93 | 1013.7 |
| 20260905081817 | 60 | 306 | 1.0 | 3.0 | 0.01 | 0.10 | 0.02 | 93 | 1013.8 |
| 20260905081041 | 60 | 283 | 1.0 | 4.0 | 0.01 | 0.11 | 0.02 | 93 | 1013.7 |
| 20260905080541 | 60 | 307 | 2.0 | 4.0 | 0.00 | 0.11 | 0.01 | 93 | 1013.8 |
| 20260905080041 | 60 | 298 | 1.0 | 5.0 | 0.00 | 0.11 | 0.01 | 93 | 1013.9 |
| 20260905075541 | 60 | 295 | 2.0 | 5.0 | 0.00 | 0.11 | 0.01 | 92 | 1013.9 |
| 20260905075044 | 60 | 303 | 1.0 | 4.0 | 0.00 | 0.11 | 0.01 | 92 | 1013.9 |
| 20260905074814 | 60 | 316 | 1.0 | 4.0 | 0.00 | 0.11 | 0.01 | 92 | 1013.9 |
| 20260905074042 | 60 | 276 | 2.0 | 5.0 | 0.00 | 0.11 | 0.01 | 92 | 1013.8 |
| 20260905073816 | 60 | 290 | 1.0 | 5.0 | 0.00 | 0.11 | 0.01 | 91 | 1013.9 |
| 20260905073041 | 60 | 299 | 2.0 | 3.0 | 0.00 | 0.11 | 0.01 | 91 | 1013.9 |
| 20260905072542 | 60 | 306 | 1.0 | 4.0 | 0.00 | 0.11 | 0.01 | 91 | 1014.0 |
| 20260905072041 | 60 | 323 | 1.0 | 4.0 | 0.00 | 0.11 | 0.01 | 91 | 1014.1 |
| 20260905071541 | 61 | 309 | 2.0 | 4.0 | 0.00 | 0.12 | 0.01 | 91 | 1014.1 |
| 20260905071040 | 61 | 337 | 2.0 | 4.0 | 0.00 | 0.12 | 0.01 | 91 | 1014.2 |
| 20260905070541 | 61 | 310 | 2.0 | 4.0 | 0.00 | 0.12 | 0.01 | 91 | 1014.1 |
| 20260905070042 | 61 | 302 | 1.0 | 3.0 | 0.00 | 0.12 | 0.01 | 91 | 1014.4 |
| 20260905065542 | 61 | 313 | 1.0 | 3.0 | 0.00 | 0.12 | 0.01 | 91 | 1014.4 |
| 20260905065041 | 61 | 289 | 1.0 | 3.0 | 0.00 | 0.12 | 0.01 | 91 | 1014.2 |
| 20260905064316 | 61 | 307 | 0.0 | 3.0 | 0.00 | 0.12 | 0.01 | 91 | 1014.5 |
| 20260905063541 | 62 | 302 | 1.0 | 4.0 | 0.00 | 0.12 | 0.01 | 91 | 1014.6 |
| 20260905063042 | 62 | 320 | 1.0 | 4.0 | 0.00 | 0.12 | 0.01 | 90 | 1014.5 |
| 20260905062541 | 62 | 333 | 2.0 | 4.0 | 0.00 | 0.13 | 0.01 | 90 | 1014.7 |
| 20260905062041 | 62 | 316 | 2.0 | 4.0 | 0.00 | 0.13 | 0.01 | 90 | 1014.7 |
| 20260905061542 | 62 | 316 | 1.0 | 4.0 | 0.00 | 0.13 | 0.01 | 90 | 1014.6 |
| 20260905061043 | 62 | 272 | 2.0 | 4.0 | 0.00 | 0.13 | 0.01 | 89 | 1014.7 |
| 20260905060540 | 62 | 298 | 2.0 | 4.0 | 0.00 | 0.13 | 0.01 | 89 | 1014.7 |
| 20260905060040 | 62 | 329 | 2.0 | 4.0 | 0.00 | 0.13 | 0.01 | 89 | 1014.7 |
| 20260905055541 | 62 | 303 | 2.0 | 4.0 | 0.01 | 0.13 | 0.01 | 89 | 1014.8 |
| 20260905055041 | 63 | 309 | 2.0 | 3.0 | 0.01 | 0.13 | 0.01 | 88 | 1014.7 |
| 20260905054541 | 63 | 285 | 1.0 | 3.0 | 0.01 | 0.13 | 0.01 | 88 | 1014.8 |
| 20260905054318 | 63 | 309 | 1.0 | 4.0 | 0.01 | 0.13 | 0.01 | 87 | 1014.8 |
| 20260905053540 | 63 | 329 | 1.0 | 4.0 | 0.01 | 0.13 | 0.01 | 88 | 1014.9 |
| 20260905053041 | 63 | 309 | 2.0 | 4.0 | 0.01 | 0.13 | 0.01 | 87 | 1014.9 |
| 20260905052542 | 63 | 300 | 2.0 | 4.0 | 0.01 | 0.13 | 0.01 | 87 | 1015.0 |
| 20260905052041 | 64 | 295 | 1.0 | 5.0 | 0.01 | 0.13 | 0.01 | 87 | 1014.9 |
| 20260905051817 | 64 | 314 | 2.0 | 5.0 | 0.01 | 0.13 | 0.01 | 87 | 1015.0 |
| 20260905051041 | 64 | 289 | 1.0 | 3.0 | 0.01 | 0.14 | 0.01 | 86 | 1015.0 |
| 20260905050541 | 64 | 337 | 0.0 | 3.0 | 0.01 | 0.14 | 0.01 | 87 | 1015.0 |
| 20260905050042 | 64 | 337 | 1.0 | 3.0 | 0.01 | 0.14 | 0.01 | 87 | 1015.0 |
| 20260905045542 | 64 | 329 | 1.0 | 3.0 | 0.00 | 0.13 | 0.00 | 87 | 1015.0 |
| 20260905045040 | 65 | 288 | 1.0 | 3.0 | 0.00 | 0.13 | 0.00 | 86 | 1015.0 |
| 20260905044541 | 65 | 289 | 1.0 | 3.0 | 0.00 | 0.13 | 0.00 | 86 | 1015.1 |
| 20260905044040 | 65 | 286 | 1.0 | 4.0 | 0.00 | 0.13 | 0.00 | 86 | 1015.1 |
| 20260905043541 | 65 | 309 | 1.0 | 4.0 | 0.00 | 0.13 | 0.00 | 86 | 1015.1 |
| 20260905043041 | 65 | 329 | 1.0 | 6.0 | 0.00 | 0.13 | 0.00 | 85 | 1015.0 |
| 20260905042541 | 65 | 306 | 1.0 | 6.0 | 0.00 | 0.13 | 0.00 | 85 | 1015.0 |
| 20260905042317 | 65 | 290 | 1.0 | 3.0 | 0.00 | 0.14 | 0.00 | 85 | 1015.0 |
| 20260905041814 | 65 | 288 | 1.0 | 4.0 | 0.00 | 0.14 | 0.00 | 85 | 1015.0 |
| 20260905041041 | 65 | 288 | 1.0 | 4.0 | 0.00 | 0.14 | 0.00 | 85 | 1014.9 |
| 20260905040820 | 65 | 296 | 2.0 | 5.0 | 0.00 | 0.14 | 0.00 | 85 | 1015.0 |
| 20260905040043 | 65 | 331 | 2.0 | 5.0 | 0.00 | 0.14 | 0.00 | 84 | 1015.1 |
| 20260905035541 | 65 | 290 | 2.0 | 5.0 | 0.00 | 0.14 | 0.14 | 84 | 1015.0 |
| 20260905035042 | 65 | 331 | 2.0 | 5.0 | 0.00 | 0.14 | 0.14 | 84 | 1014.9 |
| 20260905034540 | 66 | 0 | 3.0 | 3.0 | 0.00 | 0.14 | 0.14 | 84 | 1014.9 |
| 20260905034041 | 66 | 312 | 1.0 | 5.0 | 0.00 | 0.15 | 0.14 | 84 | 1014.9 |
| 20260905033541 | 66 | 295 | 2.0 | 5.0 | 0.00 | 0.15 | 0.14 | 83 | 1014.9 |
| 20260905033041 | 66 | 288 | 1.0 | 5.0 | 0.00 | 0.15 | 0.14 | 83 | 1015.0 |
| 20260905032541 | 66 | 283 | 3.0 | 5.0 | 0.00 | 0.15 | 0.14 | 83 | 1015.0 |
| 20260905032041 | 66 | 309 | 0.0 | 3.0 | 0.00 | 0.15 | 0.14 | 83 | 1015.0 |
| 20260905031541 | 66 | 310 | 1.0 | 5.0 | 0.00 | 0.15 | 0.14 | 84 | 1015.0 |
| 20260905031041 | 66 | 27 | 1.0 | 5.0 | 0.00 | 0.15 | 0.14 | 83 | 1014.9 |
| 20260905030542 | 66 | 306 | 1.0 | 3.0 | 0.01 | 0.16 | 0.14 | 83 | 1014.9 |
| 20260905030042 | 66 | 331 | 0.0 | 3.0 | 0.01 | 0.16 | 0.14 | 83 | 1014.9 |
| 20260905025543 | 66 | 319 | 1.0 | 4.0 | 0.01 | 0.15 | 0.14 | 83 | 1014.9 |
| 20260905025315 | 66 | 357 | 0.0 | 4.0 | 0.01 | 0.15 | 0.14 | 83 | 1014.8 |
| 20260905024540 | 66 | 7 | 0.0 | 4.0 | 0.01 | 0.15 | 0.14 | 82 | 1014.8 |
| 20260905024042 | 66 | 334 | 1.0 | 5.0 | 0.01 | 0.15 | 0.14 | 82 | 1014.9 |
| 20260905023541 | 66 | 305 | 2.0 | 5.0 | 0.01 | 0.15 | 0.14 | 82 | 1015.0 |
| 20260905023041 | 66 | 0 | 2.0 | 6.0 | 0.01 | 0.16 | 0.14 | 82 | 1015.0 |
| 20260905022541 | 66 | 299 | 2.0 | 7.0 | 0.01 | 0.16 | 0.14 | 82 | 1015.0 |
| 20260905022040 | 66 | 286 | 2.0 | 7.0 | 0.01 | 0.16 | 0.14 | 83 | 1015.0 |
| 20260905021540 | 67 | 255 | 1.0 | 4.0 | 0.01 | 0.16 | 0.14 | 83 | 1014.9 |
| 20260905021041 | 67 | 27 | 1.0 | 4.0 | 0.01 | 0.16 | 0.13 | 84 | 1014.8 |
| 20260905020540 | 67 | 296 | 1.0 | 4.0 | 0.00 | 0.16 | 0.13 | 84 | 1015.0 |
| 20260905020316 | 67 | 312 | 0.0 | 7.0 | 0.00 | 0.17 | 0.13 | 83 | 1015.0 |
| 20260905015814 | 67 | 312 | 2.0 | 7.0 | 0.00 | 0.17 | 0.13 | 83 | 1014.9 |
| 20260905015041 | 67 | 18 | 3.0 | 5.0 | 0.00 | 0.17 | 0.13 | 83 | 1014.9 |
| 20260905014540 | 67 | 39 | 0.0 | 4.0 | 0.00 | 0.17 | 0.13 | 84 | 1014.9 |
| 20260905014041 | 67 | 324 | 2.0 | 4.0 | 0.00 | 0.17 | 0.13 | 84 | 1015.0 |
| 20260905013541 | 67 | 358 | 1.0 | 4.0 | 0.00 | 0.17 | 0.13 | 84 | 1015.0 |
| 20260905013308 | 67 | 274 | 1.0 | 4.0 | 0.00 | 0.17 | 0.13 | 83 | 1015.0 |
| 20260905012814 | 67 | 3 | 2.0 | 4.0 | 0.00 | 0.18 | 0.13 | 84 | 1015.1 |
| 20260905012317 | 68 | 255 | 0.0 | 9.0 | 0.00 | 0.18 | 0.13 | 84 | 1015.2 |
| 20260905011540 | 68 | 44 | 2.0 | 9.0 | 0.00 | 0.18 | 0.13 | 83 | 1015.2 |
| 20260905011532 | 68 | 331 | 2.0 | 6.0 | 0.00 | 0.18 | 0.13 | 83 | 1015.2 |
| 20260905010800 | 68 | 261 | 2.0 | 5.0 | 0.00 | 0.18 | 0.13 | 83 | 1015.2 |
| 20260905010041 | 68 | 27 | 1.0 | 5.0 | 0.00 | 0.19 | 0.13 | 82 | 1015.3 |
| 20260905005541 | 68 | 300 | 1.0 | 7.0 | 0.00 | 0.19 | 0.13 | 82 | 1015.3 |
| 20260905005040 | 68 | 338 | 2.0 | 7.0 | 0.00 | 0.19 | 0.13 | 81 | 1015.1 |
| 20260905004542 | 69 | 330 | 2.0 | 6.0 | 0.00 | 0.19 | 0.13 | 81 | 1015.1 |
| 20260905004537 | 69 | 314 | 2.0 | 6.0 | 0.00 | 0.19 | 0.13 | 81 | 1015.1 |
| 20260905003540 | 69 | 302 | 2.0 | 5.0 | 0.00 | 0.20 | 0.13 | 81 | 1015.1 |
| 20260905003040 | 69 | 347 | 2.0 | 5.0 | 0.00 | 0.20 | 0.13 | 80 | 1015.1 |
| 20260905002540 | 69 | 243 | 1.0 | 5.0 | 0.00 | 0.20 | 0.13 | 79 | 1015.0 |
| 20260905002041 | 69 | 286 | 0.0 | 3.0 | 0.01 | 0.20 | 0.13 | 79 | 1014.9 |
| 20260905001540 | 70 | 338 | 0.0 | 5.0 | 0.01 | 0.20 | 0.13 | 78 | 1014.8 |
| 20260905001040 | 70 | 75 | 1.0 | 5.0 | 0.01 | 0.21 | 0.13 | 78 | 1014.7 |
| 20260905000540 | 70 | 351 | 0.0 | 4.0 | 0.01 | 0.21 | 0.13 | 78 | 1014.8 |
| 20260905000040 | 70 | 90 | 1.0 | 6.0 | 0.01 | 0.21 | 0.13 | 78 | 1014.8 |
| 20260904235540 | 70 | 334 | 0.0 | 10.0 | 0.01 | 0.20 | 0.13 | 77 | 1014.7 |
| 20260904235040 | 70 | 269 | 2.0 | 10.0 | 0.01 | 0.21 | 0.13 | 76 | 1014.6 |
| 20260904234542 | 71 | 7 | 1.0 | 5.0 | 0.01 | 0.21 | 0.13 | 75 | 1014.5 |
| 20260904234040 | 71 | 278 | 0.0 | 7.0 | 0.01 | 0.21 | 0.13 | 76 | 1014.6 |
| 20260904233540 | 71 | 355 | 3.0 | 7.0 | 0.01 | 0.21 | 0.13 | 74 | 1014.7 |
| 20260904233040 | 71 | 268 | 0.0 | 6.0 | 0.01 | 0.22 | 0.13 | 75 | 1014.7 |
| 20260904232813 | 71 | 265 | 0.0 | 3.0 | 0.01 | 0.22 | 0.13 | 75 | 1014.7 |
| 20260904232040 | 72 | 54 | 0.0 | 3.0 | 0.00 | 0.22 | 0.12 | 75 | 1014.6 |
| 20260904231541 | 72 | 354 | 0.0 | 2.0 | 0.00 | 0.22 | 0.12 | 74 | 1014.5 |
| 20260904231040 | 72 | 23 | 0.0 | 2.0 | 0.00 | 0.22 | 0.12 | 74 | 1014.6 |
| 20260904230540 | 72 | 41 | 0.0 | 2.0 | 0.00 | 0.23 | 0.12 | 74 | 1014.6 |
| 20260904230040 | 73 | 310 | 1.0 | 2.0 | 0.00 | 0.23 | 0.12 | 74 | 1014.5 |
| 20260904225815 | 73 | 351 | 0.0 | 1.0 | 0.00 | 0.23 | 0.12 | 74 | 1014.5 |
| 20260904225316 | 73 | 353 | 0.0 | 1.0 | 0.00 | 0.24 | 0.12 | 74 | 1014.2 |
| 20260904224540 | 73 | 338 | 0.0 | 4.0 | 0.00 | 0.24 | 0.12 | 74 | 1014.4 |
| 20260904224040 | 73 | 327 | 1.0 | 4.0 | 0.00 | 0.24 | 0.12 | 73 | 1014.4 |
| 20260904223818 | 73 | 24 | 0.0 | 1.0 | 0.00 | 0.24 | 0.12 | 73 | 1014.4 |
| 20260904223040 | 74 | 317 | 0.0 | 0.0 | 0.00 | 0.25 | 0.12 | 73 | 1014.2 |
| 20260904222540 | 74 | 317 | 0.0 | 3.0 | 0.00 | 0.25 | 0.12 | 72 | 1014.4 |
| 20260904222040 | 74 | 58 | 1.0 | 3.0 | 0.00 | 0.25 | 0.12 | 71 | 1014.1 |
| 20260904221540 | 74 | 348 | 0.0 | 4.0 | 0.00 | 0.25 | 0.12 | 72 | 1014.2 |
| 20260904221040 | 74 | 274 | 1.0 | 4.0 | 0.00 | 0.26 | 0.12 | 70 | 1014.0 |
| 20260904220541 | 75 | 306 | 1.0 | 4.0 | 0.01 | 0.26 | 0.12 | 70 | 1014.1 |
| 20260904220040 | 75 | 276 | 0.0 | 5.0 | 0.01 | 0.26 | 0.12 | 70 | 1014.0 |
| 20260904215541 | 75 | 35 | 2.0 | 7.0 | 0.01 | 0.26 | 0.12 | 68 | 1014.0 |
| 20260904215041 | 76 | 340 | 2.0 | 7.0 | 0.01 | 0.26 | 0.12 | 68 | 1013.9 |
| 20260904214540 | 76 | 358 | 1.0 | 5.0 | 0.01 | 0.26 | 0.12 | 67 | 1014.0 |
| 20260904214040 | 77 | 61 | 1.0 | 9.0 | 0.01 | 0.27 | 0.12 | 66 | 1014.0 |
| 20260904213541 | 78 | 330 | 2.0 | 9.0 | 0.01 | 0.27 | 0.12 | 65 | 1014.0 |
| 20260904213042 | 78 | 274 | 0.0 | 9.0 | 0.01 | 0.27 | 0.12 | 67 | 1014.0 |
| 20260904212816 | 78 | 247 | 2.0 | 9.0 | 0.01 | 0.28 | 0.12 | 64 | 1014.0 |
| 20260904212039 | 78 | 310 | 0.0 | 6.0 | 0.01 | 0.28 | 0.12 | 65 | 1014.1 |
| 20260904211540 | 79 | 264 | 1.0 | 7.0 | 0.01 | 0.28 | 0.12 | 64 | 1014.0 |
| 20260904211040 | 78 | 1 | 2.0 | 7.0 | 0.01 | 0.29 | 0.12 | 64 | 1014.1 |
| 20260904210540 | 79 | 321 | 3.0 | 7.0 | 0.00 | 0.29 | 0.11 | 68 | 1014.2 |
| 20260904210040 | 79 | 20 | 2.0 | 7.0 | 0.00 | 0.29 | 0.11 | 65 | 1014.2 |
| 20260904205803 | 79 | 340 | 3.0 | 7.0 | 0.00 | 0.30 | 0.11 | 65 | 1014.2 |
| 20260904205307 | 79 | 269 | 2.0 | 7.0 | 0.00 | 0.30 | 0.11 | 65 | 1014.2 |
| 20260904204540 | 78 | 312 | 2.0 | 12.0 | 0.00 | 0.30 | 0.11 | 66 | 1014.2 |
| 20260904204039 | 78 | 337 | 2.0 | 12.0 | 0.00 | 0.31 | 0.11 | 67 | 1014.4 |
| 20260904204031 | 78 | 302 | 3.0 | 11.0 | 0.00 | 0.31 | 0.11 | 66 | 1014.5 |
| 20260904202541 | 77 | 45 | 2.0 | 5.0 | 0.00 | 0.32 | 0.11 | 67 | 1014.5 |
| 20260904202306 | 77 | 286 | 1.0 | 6.0 | 0.00 | 0.32 | 0.11 | 69 | 1014.6 |
| 20260904201540 | 77 | 298 | 2.0 | 7.0 | 0.00 | 0.33 | 0.11 | 67 | 1014.6 |
| 20260904201519 | 78 | 269 | 2.0 | 7.0 | 0.01 | 0.33 | 0.11 | 66 | 1014.7 |
| 20260904200804 | 78 | 300 | 1.0 | 9.0 | 0.01 | 0.33 | 0.11 | 68 | 1014.7 |
| 20260904200040 | 78 | 300 | 3.0 | 9.0 | 0.01 | 0.34 | 0.11 | 65 | 1014.6 |
| 20260904195540 | 78 | 326 | 2.0 | 10.0 | 0.01 | 0.33 | 0.11 | 66 | 1014.7 |
| 20260904195040 | 79 | 283 | 2.0 | 10.0 | 0.01 | 0.34 | 0.11 | 65 | 1014.8 |
| 20260904194817 | 79 | 320 | 2.0 | 10.0 | 0.01 | 0.34 | 0.11 | 66 | 1014.8 |
| 20260904194529 | 79 | 266 | 2.0 | 10.0 | 0.01 | 0.34 | 0.11 | 65 | 1014.7 |
| 20260904193806 | 79 | 286 | 3.0 | 11.0 | 0.01 | 0.35 | 0.11 | 64 | 1014.8 |
| 20260904193041 | 79 | 288 | 5.0 | 11.0 | 0.01 | 0.35 | 0.11 | 62 | 1014.8 |
| 20260904192540 | 80 | 313 | 2.0 | 9.0 | 0.01 | 0.36 | 0.11 | 62 | 1014.8 |
| 20260904192040 | 80 | 265 | 2.0 | 10.0 | 0.01 | 0.36 | 0.11 | 62 | 1014.9 |
| 20260904191747 | 80 | 302 | 1.0 | 18.0 | 0.01 | 0.36 | 0.10 | 63 | 1014.8 |
| 20260904190540 | 80 | 278 | 8.0 | 16.0 | 0.00 | 0.37 | 0.10 | 65 | 1015.0 |
| 20260904190040 | 80 | 293 | 2.0 | 12.0 | 0.00 | 0.38 | 0.10 | 68 | 1015.3 |
| 20260904185540 | 79 | 300 | 6.0 | 12.0 | 0.00 | 0.38 | 0.10 | 67 | 1015.2 |
| 20260904185528 | 79 | 278 | 7.0 | 11.0 | 0.00 | 0.39 | 0.10 | 65 | 1015.1 |
| 20260904184540 | 79 | 207 | 5.0 | 11.0 | 0.00 | 0.39 | 0.10 | 64 | 1015.2 |
| 20260904184040 | 79 | 319 | 2.0 | 10.0 | 0.00 | 0.40 | 0.10 | 71 | 1015.1 |
| 20260904183540 | 79 | 248 | 2.0 | 10.0 | 0.00 | 0.40 | 0.10 | 67 | 1015.2 |
| 20260904183041 | 78 | 230 | 4.0 | 10.0 | 0.00 | 0.41 | 0.10 | 67 | 1015.3 |
| 20260904182618 | 78 | 269 | 2.0 | 7.0 | 0.00 | 0.41 | 0.10 | 69 | 1015.6 |
| 20260904182541 | 78 | 331 | 5.0 | 9.0 | 0.00 | 0.41 | 0.10 | 69 | 1015.4 |
| 20260904181544 | 78 | 286 | 3.0 | 12.0 | 0.00 | 0.42 | 0.10 | 69 | 1015.6 |
| 20260904181540 | 78 | 272 | 4.0 | 9.0 | 0.00 | 0.42 | 0.10 | 70 | 1015.6 |
| 20260904175539 | 78 | 230 | 2.0 | 7.0 | 0.00 | 0.44 | 0.10 | 69 | 1015.8 |
| 20260904175521 | 78 | 289 | 3.0 | 9.0 | 0.00 | 0.44 | 0.10 | 67 | 1015.9 |
| 20260904174540 | 78 | 326 | 3.0 | 11.0 | 0.00 | 0.45 | 0.10 | 67 | 1015.7 |
| 20260904174040 | 78 | 310 | 6.0 | 11.0 | 0.00 | 0.45 | 0.10 | 69 | 1015.9 |
| 20260904173814 | 78 | 320 | 4.0 | 9.0 | 0.00 | 0.45 | 0.10 | 67 | 1015.9 |
| 20260904173532 | 78 | 20 | 5.0 | 9.0 | 0.00 | 0.46 | 0.10 | 67 | 1016.0 |
| 20260904171040 | 77 | 281 | 4.0 | 12.0 | 0.00 | 0.48 | 0.10 | 70 | 1016.5 |
| 20260904170540 | 77 | 271 | 4.0 | 7.0 | 0.00 | 0.48 | 0.10 | 72 | 1016.2 |
| 20260904170059 | 76 | 238 | 4.0 | 11.0 | 0.01 | 0.48 | 0.10 | 69 | 1016.1 |
| 20260904170051 | 77 | 345 | 5.0 | 11.0 | 0.01 | 0.49 | 0.10 | 69 | 1016.1 |
| 20260904165316 | 76 | 330 | 2.0 | 7.0 | 0.01 | 0.49 | 0.10 | 72 | 1016.1 |
| 20260904164539 | 76 | 274 | 3.0 | 9.0 | 0.01 | 0.49 | 0.10 | 69 | 1016.2 |
| 20260904164040 | 76 | 353 | 4.0 | 9.0 | 0.01 | 0.50 | 0.10 | 70 | 1016.2 |
| 20260904163540 | 76 | 321 | 4.0 | 7.0 | 0.01 | 0.50 | 0.10 | 71 | 1016.2 |
| 20260904163306 | 75 | 248 | 2.0 | 7.0 | 0.01 | 0.50 | 0.10 | 73 | 1016.2 |
| 20260904162039 | 75 | 340 | 0.0 | 7.0 | 0.01 | 0.51 | 0.10 | 72 | 1016.5 |
| 20260904161540 | 75 | 281 | 0.0 | 7.0 | 0.01 | 0.52 | 0.10 | 73 | 1016.6 |